CZ-6A DEB, 60758

Orbit data source: Space-Track

CZ-6A DEB, 60758 is space debris in LEO originally from a launch on Tue, 06 Aug 2024 UTC launched from the Taiyaun Space Center, China (TSC). Debris objects in space refer to the collection of defunct objects orbiting the Earth. Examples of debris include non-operational satellites, rocket bodies, and fragments generated from explosions, collisions, or faulty payload assembly.

Loading next visibility...
Identifier
60758, 2024-140EH
Orbit
LEO
Country
Flag of CNCN / PRC
Related business
Manufacturer
SAST
Mission
Spacecraft
Bus & Motor
Unknown
Mass
Unknown
Launch date (UTC)
2024-08-06 (2 years ago)
Launch vehicle
Unknown
Launch site
Taiyaun Space Center, China (TSC)
Object type
Payload
Rocket body
Debris
Shape & HBR
Unknown shape, 0.2 m
Radar Cross Section
Medium (>0.1 m² and <1 m²)

Expand to show TLE details & history
Last TLE update: 13 hours ago

TLE from 13 hours ago
0 CZ-6A DEB
1 60758U 24140EH  26171.29370523  .00000360  00000-0  81500-4 0  9992
2 60758  89.0115 271.1280 0098739 256.1971 102.8234 14.51034435 98366
Epoch: 2026-06-20T07:02Z
TLE epoch observation values (Epoch: 2026-06-20T07:02:56.131Z)
Latitude
-0°
Longitude
-103.11628°
Altitude
741.589 km
Speed
7.475 km/s
True Right ascension
18h 04m 30s
True Declination
0° 00' 00"
Sunlit
Object was in full shadow at epoch
Visualization orbit readout
Latitude
Unknown
Longitude
Unknown
Altitude
Unknown
Speed
Unknown
Apparent Right ascension
Unknown
Apparent Declination
Unknown
Sunlit
N/A
Visualization observer readout
Local Sidereal Time
07:21:30
Azimuth
Unknown
Elevation
Unknown
Doppler factor
Unknown
Orbital elements
Apogee altitude
789.256 km
Perigee altitude
649.1 km
Semi-major axis
7,097.315 km
Eccentricity
0.00987
Inclination
89.0115°
RAAN
271.128°
Arg. of periapsis
256.1971°
True anomaly
103.92356°
Mean anomaly
102.8234°
Eccentric anomaly
103.37379°
Mean motion
3.62996 °/min
Orbital period
99.17 mins
BSTAR
0.0000815
Loading maneuver chart data...
Computing Atmospheric mass density...
Loading historical data...
Loading historical data...
Loading historical data...
Loading historical data...
Loading historical data...
Loading historical data...
Loading historical data...

Documentation

Showing up to 5 results
|